Regional Weather Roundup
Issued by NWS Charleston, WV

Home | Current Version | Previous Version | Text Only | Print | Product List | Glossary Off
Versions: 1 2 3 4 5 6 7 8 9 10 11 12 13 14 15 16 17 18 19 20 21 22 23 24 25 26 27 28 29 30 31 32 33 34 35 36 37 38 39 40 41 42 43 44 45 46 47 48 49 50

000
ASUS41 KRLX 022210
RWRRLX
West Virginia Regional Weather Roundup
National Weather Service Charleston WV
500 PM EST FRI DEC 02 2016

Note: "fair" indicates few or no clouds below 12,000 feet with no
significant weather and/or obstructions to visibility.

WVZ003-022300-
Northern Panhandle of West Virginia

CITY           SKY/WX    TMP DP  RH WIND       PRES   REMARKS
WHEELING       MIX PCPN  36  29  75 W17G23    30.12R
$$

WVZ009-022300-
Northwest West Virginia

CITY           SKY/WX    TMP DP  RH WIND       PRES   REMARKS
PARKERSBURG    CLOUDY    36  33  89 W7        30.23R
$$

WVZ006-022300-
Western West Virginia

CITY           SKY/WX    TMP DP  RH WIND       PRES   REMARKS
HUNTINGTON     CLOUDY    39  28  64 W9        30.24S
$$

WVZ015-022300-
West Central West Virginia

CITY           SKY/WX    TMP DP  RH WIND       PRES   REMARKS
CHARLESTON     CLOUDY    38  28  67 W10G16    30.22R
$$

WVZ022-031-022300-
North Central West Virginia

CITY           SKY/WX    TMP DP  RH WIND       PRES   REMARKS
CLARKSBURG     LGT RAIN  34  31  88 SW9       30.15S FOG
MORGANTOWN     CLOUDY    36  31  82 VRB5      30.14S
$$

WVZ025-035-042-045-022300-
Southern West Virginia

CITY           SKY/WX    TMP DP  RH WIND       PRES   REMARKS
BECKLEY        CLOUDY    35  27  72 NW12      30.15R
LOGAN          CLOUDY    39  30  70 CALM      30.19S
BLUEFIELD      CLEAR     38  26  62 NW14G22   30.12R
LEWISBURG      CLOUDY    34  27  75 CALM      30.12S
$$

WVZ047-022300-
Northern Mountains of West Virginia

CITY           SKY/WX    TMP DP  RH WIND       PRES   REMARKS
ELKINS         CLOUDY    33  25  72 SW6       30.14R
$$

WVZ052-022300-
Eastern Panhandle of West Virginia

CITY           SKY/WX    TMP DP  RH WIND       PRES   REMARKS
MARTINSBURG    CLOUDY    41  27  57 W10       30.08R
PETERSBURG     LGT RAIN  39  30  71 W15       30.12S
$$




USA.gov is the U.S. government's official web portal to all federal, state and local government web resources and services.